SCP
0 0 0 0 0 0 0 0 0 0 0 0 0 0 0 0 0 0 0 0 0 0 0 0 0 0 0 0 0 0 0 0 0 0 0 0 0 0 0 0 0 0 1
0 0 0 0 0 0 0 0 0 0 0 0 0 0 0 0 0 0 0 0 0 0 0 0 0 0 0 0 0 0 0 0 0 0 0 0 0 0 0 0 0 0 0
0 0 0 0 0 0 0 0 0 0 0 0 0 0 0 0 0 0 0 0 0 0 0 0 0 0 0 0 0 0 0 0 0 0 0 0 0 0 0 0 0 0 0
0 0 0 0 0 0 0 0 0 0 0 0 0 0 0 0 0 0 0 0 0 0 0 0 0 0 0 0 0 0 0 0 0 0 0 0 0 0 0 0 0 0 0
1 0 0 0 0 0 0 0 0 0 0 0 0 0 0 0 0 0 0 0 0 0 0 0 0 0 0 0 0 0 0 0 0 0 0 0 0 0 0 0 0 0 0
1 0 0 0 0 0 0 0 0 0 0 0 0 0 0 0 0 0 0 0 0 0 0 0 0 0 0 0 0 0 0 0 0 0 0 0 0 0 0 0 0 0 0
0 0 0 0 0 0 0 0 0 0 0 0 0 0 0 0 0 0 0 0 0 0 0 0 0 0 0 0 0 0 0 0 0 0 0 0 0 0 0 0 0 0 0
0 0 0 0 0 0 0 0 0 0 0 0 0 0 0 0 0 0 0 0 0 0 0 0 0 0 0 0 0 0 0 0 0 0 0 0 0 0 0 0 0 0 0
0 0 0 0 0 0 0 0 0 0 0 0 0 0 0 0 0 0 0 0 0 0 0 0 0 0 0 0 0 0 0 0 0 0 0 0 0 0 0 0 0 0 0
0 0 0 0 0 0 0 0 0 0 0 0 0 0 0 0 0 0 0 0 0 0 0 0 0 0 0 0 0 0 0 0 0 0 0 0 0 0 0 0 0 0 0
0 0 0 0 0 0 0 0 0 0 0 0 0 0 0 0 0 0 0 0 0 0 0 0 0 0 0 0 0 0 0 0 0 0 0 0 0 0 0 0 0 0 0
0 0 0 0 0 0 0 0 0 0 0 0 0 0 0 0 0 0 0 0 0 0 0 0 0 0 0 0 0 0 0 0 0 0 0 0 0 0 0 0 0 0 0
0 0 0 0 0 0 0 0 0 0 0 0 0 0 0 0 0 0 0 0 0 0 0 0 0 0 0 0 0 0 0 0 0 0 0 0 0 0 0 0 0 0 0
0 0 0 0 0 0 0 0 0 0 0 0 0 0 0 0 0 0 0 0 0 0 0 0 0 0 0 0 0 0 0 0 0 0 0 0 0 0 0 0 0 0 0
0 0 0 0 0 0 0 0 0 0 0 0 0 0 0 0 0 0 0 0 0 0 0 0 0 0 0 0 0 0 0 0 0 0 0 0 0 0 0 0 0 0 0
0 0 0 0 0 0 0 0 0 0 0 0 0 0 0 0 0 0 0 0 0 0 0 0 0 0 0 0 0 0 0 0 0 0 0 0 0 0 0 0 0 0 0
0 0 0 0 0 0 0 0 0 0 0 0 0 0 0 0 0 0 0 0 0 0 0 0 0 0 0 0 0 0 0 0 0 0 0 0 0 0 0 0 0 0 0
0 0 0 0 0 0 0 0 0 0 0 0 0 0 0 0 0 0 0 0 0 0 0 0 0 0 0 0 0 0 0 0 0 0 0 0 0 0 0 0 0 0 0
0 0 0 0 0 0 0 0 0 0 0 0 0 0 0 0 0 0 0 0 0 0 0 0 0 0 0 0 0 0 0 0 0 0 0 0 0 0 0 0 0 0 0
0 0 0 0 0 0 0 0 0 0 0 0 0 0 0 0 0 0 0 0 0 0 0 0 0 0 0 0 0 0 0 0 0 0 0 0 0 0 0 0 0 0 0
0 0 0 0 0 0 0 0 0 0 0 0 0 0 0 0 0 0 0 0 0 0 0 0 0 0 0 0 0 0 0 0 0 0 0 0 0 0 0 0 0 0 0
0 0 0 0 0 0 0 0 0 0 0 0 0 0 0 0 0 0 0 0 0 0 0 0 0 0 0 0 0 0 0 0 0 0 0 0 0 0 0 0 0 0 0
0 0 0 0 0 0 0 0 0 0 0 0 0 0 0 0 0 0 0 0 0 0 0 0 0 0 0 0 0 0 0 0 0 0 0 0 0 0 0 0 0 0 0
0 0 0 0 0 0 0 0 0 0 0 0 0 0 0 0 0 0 0 0 0 0 0 0 0 0 0 0 0 0 0 0 0 0 0 0 0 0 0 0 0 0 0
0 0 0 0 0 0 0 0 0 0 0 0 0 0 0 0 0 0 0 0 0 0 0 0 0 0 0 0 0 0 0 0 0 0 0 0 0 0 0 0 0 0 0
0 0 0 0 0 0 0 0 0 0 0 0 0 0 0 0 0 0 0 0 0 0 0 0 0 0 0 0 0 0 0 0 0 0 0 0 0 0 0 0 0 0 0
Wind_Speed
7 5 6 6 6 6 7 7 6 5 4 2 2 2 1 0 1 1 1 1 1 2 2 1 2 2 2 2 3 2 2 2 1 1 2 2 2 2 1 1 0 0 0
5 5 6 7 8 8 7 7 7 6 5 3 2 2 2 1 1 1 1 1 2 2 1 1 2 2 2 3 3 2 1 2 2 1 1 2 3 3 2 1 1 1 0
8 7 7 8 7 9 10 9 8 7 5 4 3 2 2 2 1 1 1 2 2 2 1 1 1 2 1 2 2 2 1 1 2 1 1 1 0 1 2 2 2 2 1
6 6 8 8 10 10 8 8 7 7 5 5 4 4 3 2 2 2 1 2 2 2 1 1 1 1 1 2 2 1 1 1 1 1 1 1 1 1 1 2 2 2 2
5 7 9 9 9 8 8 7 7 6 5 5 5 4 3 2 1 1 1 2 2 2 2 1 1 2 2 2 2 2 1 0 0 0 1 1 1 1 1 1 2 2 2
4 5 5 5 5 6 6 7 7 6 6 6 5 5 5 4 2 2 1 2 2 2 2 1 1 1 2 2 2 1 1 1 0 0 1 1 1 0 1 1 0 1 2
3 3 4 6 6 7 8 7 8 7 6 6 6 6 5 5 5 3 3 2 2 2 2 1 1 1 2 2 1 1 1 1 1 1 0 0 0 1 1 2 1 1 1
3 4 4 6 6 8 8 8 9 8 7 7 7 5 5 4 3 4 3 3 3 3 2 2 2 2 2 1 1 1 1 1 1 1 1 0 1 0 1 2 2 1 2
5 4 4 4 5 7 8 10 10 8 8 8 7 6 6 5 5 4 3 3 3 3 3 2 2 2 1 1 0 0 1 1 1 1 1 0 1 1 0 1 2 3 1
6 5 3 4 4 5 5 5 7 9 8 7 7 6 6 6 5 4 4 4 4 3 2 2 2 2 1 1 0 0 1 0 1 0 1 1 1 1 1 0 0 1 2
7 5 4 2 2 2 3 5 5 6 6 7 7 6 6 6 5 5 5 5 4 3 3 3 2 2 2 1 1 1 1 0 1 1 0 1 0 0 1 1 1 1 1
6 5 4 2 1 1 3 4 6 6 7 7 6 7 6 5 5 6 6 5 4 4 4 3 3 3 2 2 2 2 1 1 1 1 1 1 0 0 0 0 0 0 1
8 7 5 4 3 2 2 4 5 6 6 6 7 7 6 7 7 7 6 5 5 4 4 3 4 4 3 3 3 3 2 2 2 2 2 2 1 1 1 1 0 0 1
8 8 7 6 5 3 3 3 5 5 5 6 7 8 9 9 9 7 6 6 5 5 5 5 5 4 4 3 3 3 3 3 3 2 2 2 3 3 2 1 1 1 1
11 10 8 7 6 5 4 4 4 4 4 5 8 9 8 7 7 7 7 6 6 6 5 5 4 4 4 4 5 4 4 3 3 3 3 3 4 5 4 3 2 2 2
10 10 9 9 8 7 6 5 4 4 3 5 8 7 6 7 7 8 7 6 6 6 5 6 5 5 5 7 9 7 4 4 4 4 3 4 4 5 6 6 5 5 4
8 9 9 8 8 7 6 5 5 3 3 5 6 5 6 7 8 8 7 8 8 7 7 7 6 6 7 9 9 10 6 5 5 5 4 3 3 4 2 3 4 4 5
9 9 9 9 8 8 7 6 4 2 3 4 5 5 5 7 7 7 9 9 7 7 8 8 8 7 8 11 10 10 6 5 5 5 5 5 4 4 4 3 2 2 2
6 6 6 7 8 9 9 7 5 4 3 4 5 6 6 7 6 8 10 9 7 8 8 7 8 8 9 11 11 9 5 4 5 5 5 5 5 8 7 5 4 2 2
6 6 7 7 8 9 8 7 6 6 6 7 7 6 6 7 8 9 9 7 8 9 8 8 8 9 9 10 12 11 5 5 4 4 4 8 8 9 8 6 5 5 4
6 6 6 7 7 8 7 7 7 8 9 8 7 6 6 7 8 8 6 6 7 7 8 8 8 8 9 10 12 12 6 6 5 4 4 5 9 9 9 8 6 7 5
6 6 6 7 7 7 7 8 8 9 9 8 8 7 7 7 6 6 6 5 6 8 8 7 7 6 7 9 10 13 13 10 6 6 5 5 8 8 8 6 7 8 6
5 5 5 7 7 7 6 8 10 10 10 9 9 8 8 6 6 6 6 5 5 6 7 7 8 7 6 7 12 13 14 14 8 5 8 8 8 7 5 6 8 6 4
6 6 6 7 8 8 7 8 9 9 9 10 10 8 7 7 6 5 5 5 6 7 7 8 8 7 6 6 6 6 7 10 8 5 6 8 7 5 4 4 3 3 4
5 5 6 7 8 8 8 9 9 9 9 10 9 8 7 7 6 6 6 7 8 9 10 9 8 8 9 12 14 10 8 7 7 7 4 3 3 3 3 2 2 3 3
5 6 6 7 8 8 9 9 9 8 9 9 9 7 7 6 6 6 7 9 10 12 14 14 12 10 12 12 16 17 15 15 16 9 5 6 6 6 6 5 4 3 4
Wind_Direction
238 209 194 177 167 164 166 166 160 158 143 133 132 132 168 278 321 315 335 346 351 1 12 3 355 359 357 341 339 336 346 348 341 23 8 357 7 26 23 350 329 15 14
227 205 188 178 178 176 176 173 174 170 174 164 153 155 150 191 249 301 332 342 346 345 352 5 349 352 354 354 356 6 359 350 10 57 62 10 1 2 15 12 15 20 57
219 207 193 191 183 186 185 184 182 178 179 158 119 89 65 37 11 331 319 326 334 333 344 346 343 349 2 340 340 356 26 350 351 28 112 125 209 323 345 7 20 20 39
219 206 197 195 197 196 185 181 177 177 176 163 159 154 161 188 224 234 271 308 327 329 334 337 348 346 346 338 329 9 12 31 344 347 22 116 173 134 359 346 357 19 28
222 214 207 205 201 186 179 177 172 178 176 173 173 165 170 194 215 239 285 310 323 323 325 329 347 339 337 338 343 356 14 28 65 340 346 26 42 79 120 360 343 359 357
246 231 216 197 190 177 176 172 174 185 181 179 181 182 183 186 193 223 255 286 304 306 309 314 337 322 322 328 330 337 6 16 45 52 52 84 78 88 112 136 350 341 334
260 238 214 198 191 185 184 179 181 191 188 186 194 196 194 190 199 209 219 235 263 271 279 292 296 299 301 310 326 349 359 9 36 45 32 42 148 178 144 134 136 36 342
284 252 231 212 202 195 187 183 190 197 191 194 203 200 197 194 206 209 208 219 229 243 256 261 268 280 297 311 339 350 332 14 27 27 31 23 3 28 156 155 145 90 16
304 280 261 228 212 200 197 194 193 198 198 201 200 201 202 202 209 214 213 224 234 241 243 244 260 274 286 294 315 344 339 26 27 12 25 29 350 14 26 144 156 146 126
324 313 283 246 226 213 205 197 199 204 204 201 202 205 206 207 206 205 218 225 232 235 238 243 249 258 262 269 264 288 301 15 336 335 37 32 357 14 26 72 122 147 151
320 318 309 286 242 204 193 199 206 209 208 207 208 209 208 205 202 209 220 221 222 222 227 230 233 235 235 234 240 258 258 238 311 327 18 336 9 30 19 53 81 109 138
331 330 331 341 332 228 215 211 211 213 215 208 206 215 211 200 205 217 223 216 219 222 220 218 220 228 225 218 226 249 236 219 245 267 261 280 277 40 10 64 102 141 154
355 357 359 354 334 293 251 232 225 224 220 205 206 212 211 207 214 219 219 214 215 220 218 208 214 223 223 222 227 226 226 224 232 233 230 245 199 227 236 216 197 183 108
5 5 0 348 333 317 293 264 249 236 222 209 209 215 216 215 217 215 213 212 210 212 214 211 216 220 220 220 223 218 218 225 234 229 224 223 212 217 212 209 207 160 110
5 1 355 347 342 335 321 298 272 254 230 217 218 224 223 219 217 215 213 211 210 213 211 211 218 222 219 219 213 213 213 218 232 240 236 234 230 223 209 195 188 163 145
356 354 353 351 345 333 319 310 292 272 236 229 232 230 223 218 217 218 214 210 213 214 208 211 214 221 227 229 218 204 205 210 218 235 246 248 245 243 232 218 196 182 174
353 352 348 341 334 327 312 301 293 279 243 244 245 235 224 224 223 219 212 214 213 208 210 214 212 222 234 237 228 212 196 204 215 224 232 241 229 221 213 222 207 206 208
353 348 344 340 334 332 328 314 314 297 263 261 260 244 231 233 229 218 219 221 213 208 212 215 213 219 233 234 230 217 198 206 218 220 219 223 235 221 199 188 188 211 229
340 335 333 331 336 342 339 334 332 321 299 284 274 261 239 236 230 227 229 222 212 213 212 211 208 213 230 229 224 209 191 210 225 226 219 216 224 232 205 181 189 208 243
341 340 340 347 351 344 343 347 337 330 309 292 281 276 256 240 236 234 234 225 215 219 214 217 212 211 220 223 218 203 188 206 222 225 225 222 220 224 200 185 185 198 214
338 341 346 350 341 338 346 346 339 325 308 301 291 281 269 252 244 240 239 229 219 217 215 218 218 214 218 222 218 203 190 201 207 213 218 222 219 213 203 191 193 204 187
341 343 346 339 334 339 346 340 329 316 314 308 295 284 275 267 260 245 242 231 217 216 218 219 225 222 219 217 220 213 204 196 194 208 210 210 203 199 195 192 197 191 167
331 332 332 329 331 335 338 330 319 320 323 319 304 292 287 274 263 247 241 235 218 218 221 216 223 226 216 217 218 214 209 200 194 203 198 192 188 183 185 187 184 174 159
323 324 329 331 327 326 324 314 313 318 320 319 312 300 292 287 274 259 243 232 224 223 223 221 224 223 213 211 207 206 204 197 194 188 182 173 169 159 154 156 166 166 168
311 315 317 314 312 315 315 314 315 319 319 315 312 308 294 285 276 263 249 242 235 225 220 223 219 213 219 217 200 189 192 187 182 156 139 143 150 161 158 149 145 148 152
301 307 307 306 307 310 311 312 314 315 315 315 313 309 302 293 281 276 282 265 255 252 241 230 220 224 223 208 196 196 193 183 168 154 166 178 181 182 181 176 171 168 169